Blue Canyon, CA

2:38 PM PDT on June 25, 2017 (GMT -0700)
Blue Canyon-Nyack

Weather History for KBLU - January, 2013

Change the Weather History Date:

Sunday, January 27, 2013

  Actual Average Record
Temperature  
Mean Temperature 28 °F -  
Max Temperature 30 °F 43 °F 64 °F (1984)
Min Temperature 24 °F 29 °F 9 °F (1957)
Degree Days  
Heating Degree Days 38    
Moisture  
Dew Point 25 °F    
Average Humidity 91    
Maximum Humidity 100    
Minimum Humidity 63    
Precipitation  
Precipitation 0.25 in - - ()
Sea Level Pressure  
Sea Level Pressure 29.98 in    
Wind  
Wind Speed 5 mph (WNW)    
Max Wind Speed 10 mph    
Max Gust Speed -    
Visibility 6 miles    
Events Fog , Snow    
Averages and records for this station are not official NWS values.
T = Trace of Precipitation, MM = Missing Value Source: NWS Daily Summary

Daily Weather History Graph

Daily Weather History Graph

Search for Another Location

Airport or City:

Trip Planner

Search our weather history database for the weather conditions in past years. The results will help you decide how hot, cold, wet, or windy it might be!

Date:

Astronomy

Jan. 27, 2013 Rise Set
Actual Time 7:13 AM PST 5:18 PM PST
Civil Twilight 6:45 AM PST 5:46 PM PST
Nautical Twilight 6:12 AM PST 6:19 PM PST
Astronomical Twilight 5:41 AM PST 6:50 PM PST
Moon 6:16 PM PST (1/27) 7:10 AM PST (1/27)
Length of Visible Light 11h 01m
Length of Day
10h 04m
Full, 100% of the Moon is Illuminated
Jan 27
Full
Feb 3
Last Quarter
Feb 9
New
Feb 17
First Quarter
Feb 25
Full

Hourly Weather History & Observations

Time (PST) Temp. Windchill Dew Point Humidity Pressure Visibility Wind Dir Wind Speed Gust Speed Precip Events Conditions
12:07 AM 30.2 °F 23.4 °F 28.4 °F 93% 29.92 in 3.0 mi SSE 6.9 mph - N/A   Overcast
12:34 AM 30.2 °F 24.3 °F 28.4 °F 93% 29.92 in 2.0 mi South 5.8 mph - N/A   Overcast
12:42 AM 30.2 °F 23.4 °F 28.4 °F 93% 29.92 in 5.0 mi SSE 6.9 mph - N/A   Overcast
12:50 AM 30.2 °F 22.6 °F 28.4 °F 93% 29.92 in 2.0 mi SSE 8.1 mph - N/A   Overcast
12:52 AM 30.0 °F 21.7 °F 28.9 °F 96% 29.92 in 3.0 mi SSE 9.2 mph - N/A   Overcast
1:19 AM 28.4 °F 22.2 °F 28.4 °F 100% 29.91 in 10.0 mi SSE 5.8 mph - N/A   Overcast
1:49 AM 28.4 °F 23.3 °F 28.4 °F 100% 29.91 in 2.5 mi WSW 4.6 mph - 0.00 in Snow Light Snow
1:52 AM 28.0 °F 22.8 °F 28.0 °F 100% 29.93 in 1.8 mi SW 4.6 mph - 0.01 in Snow Light Snow
1:57 AM 28.4 °F 22.2 °F 26.6 °F 93% 29.91 in 0.8 mi WNW 5.8 mph - 0.03 in Snow Light Snow
2:34 AM 26.6 °F 18.2 °F 26.6 °F 100% 29.92 in 0.2 mi NW 8.1 mph - 0.10 in Fog , Snow Heavy Snow
2:52 AM 27.0 °F 17.3 °F 26.1 °F 96% 29.94 in 0.2 mi NW 10.4 mph - 0.14 in Fog , Snow Heavy Snow
3:13 AM 26.6 °F 17.5 °F 26.6 °F 100% 29.92 in 0.5 mi NW 9.2 mph - 0.02 in Fog , Snow Snow
3:23 AM 26.6 °F 20.0 °F 26.6 °F 100% 29.92 in 1.0 mi NW 5.8 mph - 0.03 in Snow Light Snow
3:35 AM 26.6 °F 22.6 °F 26.6 °F 100% 29.92 in 1.5 mi Variable 3.5 mph - 0.04 in Snow Light Snow
3:39 AM 26.6 °F 21.2 °F 24.8 °F 93% 29.92 in 2.0 mi NNW 4.6 mph - 0.04 in Snow Light Snow
3:52 AM 27.0 °F 20.5 °F 25.0 °F 92% 29.95 in 5.0 mi NNW 5.8 mph - 0.04 in Snow Light Snow
4:25 AM 26.6 °F 21.2 °F 26.6 °F 100% 29.92 in 1.8 mi Variable 4.6 mph - 0.00 in   Overcast
4:34 AM 26.6 °F 22.6 °F 26.6 °F 100% 29.92 in 1.2 mi West 3.5 mph - 0.00 in   Overcast
4:42 AM 26.6 °F - 26.6 °F 100% 29.92 in 0.5 mi Calm Calm - 0.00 in Fog Light Freezing Fog
4:52 AM 27.0 °F - 26.1 °F 96% 29.96 in 1.0 mi Calm Calm - 0.00 in   Overcast
4:56 AM 26.6 °F - 26.6 °F 100% 29.91 in 2.0 mi Calm Calm - N/A   Overcast
5:18 AM 26.6 °F - 26.6 °F 100% 29.92 in 1.2 mi Calm Calm - 0.00 in Snow Light Snow
5:27 AM 26.6 °F 22.6 °F 26.6 °F 100% 29.92 in 0.5 mi West 3.5 mph - 0.01 in Fog , Snow Snow
5:34 AM 26.6 °F 21.2 °F 24.8 °F 93% 29.93 in 0.2 mi West 4.6 mph - 0.03 in Fog , Snow Heavy Snow
5:49 AM 26.6 °F 22.6 °F 26.6 °F 100% 29.93 in 0.8 mi Variable 3.5 mph - 0.05 in Snow Light Snow
5:52 AM 26.1 °F 21.9 °F 26.1 °F 100% 29.98 in 1.0 mi SW 3.5 mph - 0.05 in Snow Light Snow
5:58 AM 26.6 °F 22.6 °F 24.8 °F 93% 29.93 in 2.0 mi West 3.5 mph - 0.01 in Snow Light Snow
6:09 AM 26.6 °F - 26.6 °F 100% 29.93 in 1.5 mi Calm Calm - 0.01 in Snow Light Snow
6:17 AM 26.6 °F 22.6 °F 24.8 °F 93% 29.94 in 2.0 mi NW 3.5 mph - 0.01 in Snow Light Snow
6:24 AM 26.6 °F 22.6 °F 24.8 °F 93% 29.94 in 2.5 mi NW 3.5 mph - 0.01 in Snow Light Snow
6:40 AM 26.6 °F 22.6 °F 24.8 °F 93% 29.94 in 5.0 mi North 3.5 mph - 0.01 in Snow Light Snow
6:52 AM 26.1 °F - 24.1 °F 92% 30.00 in 6.0 mi Calm Calm - 0.01 in   Overcast
7:19 AM 26.6 °F 21.2 °F 24.8 °F 93% 29.95 in 10.0 mi WNW 4.6 mph - N/A   Mostly Cloudy
7:33 AM 26.6 °F 20.0 °F 24.8 °F 93% 29.95 in 5.0 mi WNW 5.8 mph - N/A   Mostly Cloudy
7:45 AM 26.6 °F 22.6 °F 24.8 °F 93% 29.96 in 1.8 mi West 3.5 mph - N/A   Mostly Cloudy
7:48 AM 26.6 °F 22.6 °F 24.8 °F 93% 29.96 in 0.8 mi West 3.5 mph - 0.00 in Snow Light Snow
7:52 AM 26.1 °F 21.9 °F 26.1 °F 100% 30.02 in 0.5 mi West 3.5 mph - 0.00 in Fog , Snow Light Snow
8:04 AM 26.6 °F 22.6 °F 24.8 °F 93% 29.96 in 1.5 mi Variable 3.5 mph - 0.00 in   Overcast
8:09 AM 26.6 °F 22.6 °F 24.8 °F 93% 29.96 in 5.0 mi WNW 3.5 mph - 0.00 in   Overcast
8:19 AM 26.6 °F - 24.8 °F 93% 29.96 in 2.0 mi Calm Calm - 0.00 in   Overcast
8:28 AM 26.6 °F 22.6 °F 24.8 °F 93% 29.97 in 5.0 mi NNW 3.5 mph - 0.00 in   Mostly Cloudy
8:52 AM 27.0 °F - 25.0 °F 92% 30.04 in 7.0 mi Calm Calm - 0.00 in   Mostly Cloudy
9:22 AM 26.6 °F 21.2 °F 24.8 °F 93% 29.99 in 10.0 mi NNW 4.6 mph - N/A   Scattered Clouds
9:52 AM 28.0 °F 22.8 °F 25.0 °F 88% 30.05 in 10.0 mi NNW 4.6 mph - N/A   Partly Cloudy
10:52 AM 30.0 °F 26.5 °F 23.0 °F 75% 30.07 in 10.0 mi Variable 3.5 mph - N/A   Clear
11:41 AM 30.2 °F 24.3 °F 26.6 °F 86% 30.01 in 10.0 mi West 5.8 mph - N/A   Mostly Cloudy
11:52 AM 28.9 °F 23.9 °F 26.1 °F 89% 30.07 in 10.0 mi West 4.6 mph - N/A   Overcast
12:10 PM 30.2 °F 25.4 °F 26.6 °F 86% 30.01 in 10.0 mi West 4.6 mph - N/A   Mostly Cloudy
12:17 PM 30.2 °F 24.3 °F 26.6 °F 86% 30.01 in 10.0 mi West 5.8 mph - N/A   Mostly Cloudy
12:34 PM 30.2 °F 25.4 °F 26.6 °F 86% 30.01 in 10.0 mi Variable 4.6 mph - N/A   Overcast
12:52 PM 28.9 °F 21.9 °F 27.0 °F 92% 30.06 in 4.0 mi West 6.9 mph - N/A   Mostly Cloudy
1:01 PM 30.2 °F 24.3 °F 26.6 °F 86% 30.01 in 10.0 mi West 5.8 mph - N/A   Mostly Cloudy
1:52 PM 30.0 °F 24.1 °F 27.0 °F 88% 30.07 in 10.0 mi Variable 5.8 mph - N/A   Scattered Clouds
2:06 PM 30.2 °F 26.7 °F 26.6 °F 86% 30.00 in 10.0 mi West 3.5 mph - N/A   Mostly Cloudy
2:38 PM 30.2 °F 24.3 °F 26.6 °F 86% 30.00 in 10.0 mi West 5.8 mph - N/A   Mostly Cloudy
2:52 PM 30.9 °F 23.5 °F 26.1 °F 82% 30.07 in 10.0 mi West 8.1 mph - N/A   Mostly Cloudy
2:55 PM 30.2 °F 25.4 °F 26.6 °F 86% 30.01 in 10.0 mi WNW 4.6 mph - N/A   Mostly Cloudy
3:52 PM 28.0 °F 24.2 °F 25.0 °F 88% 30.09 in 10.0 mi WSW 3.5 mph - N/A   Partly Cloudy
4:11 PM 28.4 °F 23.3 °F 24.8 °F 86% 30.01 in 10.0 mi West 4.6 mph - N/A   Mostly Cloudy
4:25 PM 26.6 °F - 24.8 °F 93% 30.01 in 10.0 mi Calm Calm - N/A   Scattered Clouds
4:52 PM 28.0 °F 22.8 °F 24.1 °F 85% 30.08 in 10.0 mi NW 4.6 mph - N/A   Clear
5:52 PM 28.0 °F - 25.0 °F 88% 30.10 in 10.0 mi Calm Calm - N/A   Clear
5:59 PM 28.4 °F - 26.6 °F 93% 30.01 in 10.0 mi Calm Calm - N/A   Scattered Clouds
6:09 PM 26.6 °F 21.2 °F 26.6 °F 100% 30.01 in 10.0 mi WNW 4.6 mph - N/A   Mostly Cloudy
6:41 PM 28.4 °F - 26.6 °F 93% 30.01 in 10.0 mi Calm Calm - N/A   Overcast
6:52 PM 28.0 °F 24.2 °F 26.1 °F 92% 30.10 in 10.0 mi NNW 3.5 mph - N/A   Overcast
7:21 PM 26.6 °F 22.6 °F 24.8 °F 93% 30.02 in 10.0 mi North 3.5 mph - N/A   Scattered Clouds
7:52 PM 26.1 °F 20.5 °F 23.0 °F 88% 30.12 in 10.0 mi Variable 4.6 mph - N/A   Clear
8:52 PM 26.1 °F 20.5 °F 17.1 °F 69% 30.10 in 10.0 mi ENE 4.6 mph - N/A   Partly Cloudy
9:52 PM 26.1 °F 20.5 °F 15.1 °F 63% 30.10 in 10.0 mi NE 4.6 mph - N/A   Clear
10:52 PM 25.0 °F 20.7 °F 14.0 °F 63% 30.09 in 10.0 mi NE 3.5 mph - N/A   Clear
11:52 PM 24.1 °F 18.2 °F 14.0 °F 65% 30.12 in 10.0 mi NE 4.6 mph - N/A   Clear